This is the latest recevied weather packets stored in our database for station/object KI5BDI. If no packets are shown the sender has not sent any weather packets the latest 10 day(s).
| Time | Temp. | Humidity | Pressure | Rain* | Wind** | Luminosity | Snow |
|---|---|---|---|---|---|---|---|
| 1777320319 | 31.67° C | 71% | 1008.3 hPa | 0 mm | - | 862 W/m² | - |
| 1777317320 | 30° C | 74% | 1008.4 hPa | 0 mm | - | 823 W/m² | - |
| 1777314918 | 30° C | 75% | 1008.4 hPa | 0 mm | - | 649 W/m² | - |
| 1777314318 | 30° C | 73% | 1008.3 hPa | 0 mm | - | 516 W/m² | - |
| 1777308921 | 28.89° C | 77% | 1008.5 hPa | 0 mm | - | 924 W/m² | - |
| 1777304717 | 27.78° C | 80% | 1008.5 hPa | 0.25 mm | - | 732 W/m² | - |
| 1777301138 | 26.11° C | 86% | 1008.5 hPa | 0 mm | - | 525 W/m² | - |
| 1777299918 | 25.56° C | 88% | 1008.8 hPa | 0 mm | - | 300 W/m² | - |
| 1777298718 | 25° C | 90% | 1008.8 hPa | 0 mm | - | 297 W/m² | - |
| 1777293319 | 23.89° C | 91% | 1008.5 hPa | 0 mm | - | 14 W/m² | - |
| 1777290320 | 23.89° C | 91% | 1007.1 hPa | 0 mm | - | 2 W/m² | - |
| 1777288522 | 23.89° C | 91% | 1006.9 hPa | 0 mm | - | 0 W/m² | - |
| 1777287921 | 23.89° C | 91% | 1006.5 hPa | 0 mm | - | 0 W/m² | - |
| 1777283123 | 23.89° C | 91% | 1006.4 hPa | 0 mm | - | 0 W/m² | - |
| 1777277119 | 23.89° C | 92% | 1006.1 hPa | 0 mm | - | 0 W/m² | - |
| 1777271718 | 23.89° C | 94% | 1006.4 hPa | 0 mm | - | 0 W/m² | - |
| 1777263920 | 24.44° C | 91% | 1006.6 hPa | 0 mm | - | 0 W/m² | - |
| 1777263320 | 24.44° C | 91% | 1006.7 hPa | 0 mm | - | 0 W/m² | - |
| 1777260322 | 24.44° C | 91% | 1006.6 hPa | 0 mm | - | 0 W/m² | - |
| 1777257321 | 24.44° C | 88% | 1006.6 hPa | 0 mm | - | 0 W/m² | - |
| 1777256741 | 25° C | 87% | 1006.5 hPa | 0 mm | - | 0 W/m² | - |
| 1777253720 | 26.11° C | 84% | 1006.2 hPa | 0 mm | - | 0 W/m² | - |
| 1777252538 | 26.11° C | 83% | 1006 hPa | 0 mm | - | 1 W/m² | - |
| 1777245321 | 28.89° C | 74% | 1005.8 hPa | 0 mm | - | 149 W/m² | - |
| 1777242920 | 30° C | 71% | 1005.9 hPa | 0 mm | - | 287 W/m² | - |
* Rain latest hour (hover to see other rain measurements)
** Current wind speed in m/s (hover to see current wind gust speed)